#timestamp,LO_Frequency,Hit,StdDev 
1606647615.5,286047001.1,N
1606647635.3,286047002.0,N
1606647655.1,286047004.3,N
1606647675.9,286047001.6,N
1606647695.7,286047004.2,N
1606647715.6,286047001.7,N
1606647735.4,286047003.5,N
1606647755.2,286047001.7,N
1606647775.1,286047002.3,N
1606647776.0,286047002.3,N
1606647795.8,286047002.4,N
1606647815.6,286047000.3,N
1606647835.5,286047002.4,N
1606647855.3,286047000.3,N
1606647875.1,286047000.9,N
1606647895.9,286047000.2,N
1606647915.7,286047001.8,N
1606647935.6,286047005.3,N
1606647955.4,286047003.1,N
1606647975.2,286047001.5,N
1606647995.1,286047002.3,N
1606647996.0,286047002.3,N
1606648015.8,286047003.9,N
1606648035.6,286047003.1,N
1606648055.5,286047003.2,N
1606648075.3,286047005.7,N
1606648095.2,286047003.1,N
1606648115.9,286047002.9,N
1606648135.7,286047004.5,N
1606648155.6,286047004.2,N
1606648175.4,286047002.1,N
1606648195.2,286047002.4,N
1606648215.1,286047002.2,N
1606648216.0,286047002.2,N
1606648235.8,286047002.2,N
1606648255.7,286047003.9,N
1606648275.5,286047003.8,N
1606648295.3,286047003.4,N
1606648315.2,286047003.6,N
1606648335.0,286047007.4,Y
1606648335.9,286047007.4,P
1606648355.7,286047000.4,N
1606648375.6,286047000.5,N
1606648395.4,286047002.6,N
1606648415.3,286047002.6,N
1606648435.1,286047002.3,N
1606648436.0,286047002.3,N
1606648455.8,286047002.7,N
1606648475.7,286047001.6,N
1606648495.5,286047003.2,N
1606648515.3,286047002.9,N
1606648535.2,286047001.7,N
1606648555.0,286047005.2,Y
1606648555.9,286047005.2,P
1606648575.8,286047000.7,N
1606648595.6,286046998.6,N
1606648615.4,286046998.4,N
1606648635.3,286046996.7,N
1606648655.1,286047000.6,N
1606648675.8,286047001.2,N
1606648695.7,286047000.7,N
1606648715.5,286047000.2,N
1606648735.4,286047005.7,N
1606648755.2,286047001.8,N
1606648775.0,286046999.7,N
1606648775.9,286046999.7,N
1606648795.8,286047002.6,N
1606648815.6,286047002.2,N
1606648835.4,286047000.6,N
1606648855.3,286046999.7,N
1606648875.1,286047002.1,N
1606648895.9,286046999.2,N
1606648945.7,286047000.0,E
1606648955.6,286046999.9,N
1606648975.5,286047002.7,P
1606648995.3,286047002.8,N
1606649015.2,286047000.1,N
1606649035.9,286046999.7,N
1606649055.7,286046999.4,N
1606649075.6,286046998.3,N
1606649095.4,286047004.3,N
1606649115.2,286047001.6,N
1606649135.1,286047004.0,N
1606649136.0,286047004.0,N
1606649155.8,286047005.2,N
1606649175.7,286047003.5,N
1606649195.5,286047002.6,N
1606649215.3,286047000.1,N
1606649235.2,286047002.5,N
1606649255.0,286047000.5,N
1606649255.9,286047000.5,N
1606649275.8,286046998.9,N
1606649295.6,286046998.8,N
1606649315.4,286046998.4,N
1606649335.3,286046998.9,N
1606649355.1,286046999.5,N
1606649375.8,286046999.1,N
1606649395.7,286046996.8,N
1606649415.5,286046996.5,N
1606649435.4,286047004.4,N
1606649455.2,286047001.1,N
1606649475.0,286046998.9,N
1606649475.9,286046998.9,N
1606649495.8,286047000.3,N
1606649515.6,286047001.2,N
1606649535.4,286046999.7,N
1606649555.3,286046998.7,N
1606649575.1,286046996.7,N
1606649595.9,286046997.8,N
1606649615.7,286046998.4,N
1606649635.5,286047000.8,N
1606649655.4,286046999.5,N
1606649675.2,286046996.6,N
1606649695.0,286046998.9,N
1606649695.9,286046998.9,N
1606649715.8,286046998.4,N
1606649735.6,286046998.9,N
1606649755.5,286046998.9,N
1606649775.3,286047001.1,N
1606649795.1,286047000.8,N
1606649815.9,286046998.6,N
1606649835.7,286046998.1,N
1606649855.5,286046998.8,N
1606649875.4,286047000.4,N
1606649895.2,286046998.1,N
1606649915.1,286047000.0,N
1606649916.0,286047000.0,N
1606649935.8,286046998.8,N
1606649955.6,286046999.2,N
1606649975.5,286046996.8,N
1606649995.3,286046998.4,N
1606650015.2,286046996.9,N
1606650035.9,286046996.6,N
1606650055.7,286046997.0,N
1606650075.6,286046996.9,N
1606650095.4,286046999.6,N
1606650115.2,286046996.7,N
1606650135.1,286046998.7,N
1606650136.0,286046998.7,N
1606650155.8,286046999.2,N
1606650175.7,286046999.0,N
1606650195.5,286046996.9,N
1606650215.3,286046996.7,N
1606650235.2,286046996.5,N
1606650255.0,286046997.0,N
1606650255.9,286046997.0,N
1606650275.8,286046996.6,N
1606650295.6,286046997.6,N
1606650315.4,286046997.1,N
1606650335.3,286046996.9,N
1606650355.1,286046997.2,N
1606650375.8,286046997.4,N
1606650395.7,286046996.2,Y
1606650415.5,286046999.0,P
1606650435.4,286046999.3,N
1606650455.2,286047000.5,N
1606650475.0,286046999.0,N
1606650475.9,286046999.0,N
1606650495.8,286046999.9,N
1606650515.6,286047002.8,Y
1606650535.5,286047002.2,P
1606650555.3,286046999.8,N
1606650575.1,286047001.9,N
1606650595.9,286047002.2,N
1606650615.7,286047002.3,N
1606650635.6,286047002.9,N
1606650655.4,286047002.5,N
1606650675.2,286047000.2,N
1606650695.1,286047000.5,N
1606650696.0,286047000.5,N
1606650715.8,286046998.2,N
1606650735.6,286046998.1,N
1606650755.5,286047000.7,N
1606650775.3,286047000.9,N
1606650795.2,286046999.8,N
1606650815.9,286047002.4,N
1606650835.7,286047001.6,N
1606650855.6,286047001.8,N
1606650875.4,286047002.5,N
1606650895.2,286047000.0,N
1606650915.1,286046998.1,N
1606650916.0,286046998.1,N
1606650935.8,286046999.8,N
1606650955.7,286047001.9,N
1606650975.5,286047000.3,N
1606650995.3,286046998.1,N
1606651015.2,286047001.1,N
1606651035.9,286047000.3,N
1606651055.7,286047000.1,N
1606651075.6,286047002.6,N
1606651095.4,286047002.2,N
1606651115.3,286047000.1,N
1606651135.1,286047001.7,N
1606651136.0,286047001.7,N
1606651155.8,286047002.3,N
1606651175.7,286046998.4,N
1606651195.5,286047000.7,N
